Zurück zum Katalog

COSMOS 1191 DEB

LostHEO
NORAD 32996·DEBRIS·🇷🇺 Russia

Gestartet Jul 2, 1980 von Plesetsk Cosmodrome

Loading…

Nächste Überflüge (nächste 24 Stunden)

TLE

VeraltetSource: Space-Track

Epoche: Aug 29, 2010, 11:56 UTC

1 32996U 80057P   10241.49733659 -.00000451  00000-0  10000-3 0  9998
2 32996  66.3706 122.8461 5733660 120.1866 308.8794  1.97807978 52324

Verfolge COSMOS 1191 DEB in Echtzeit mit AllMySat

Download on the App Store